Flag for U.S.A. Weather past 2 weeks in Abilene, Texas, U.S.A.

Now
73 °F

Clear.


Feels Like: 75 °F
Forecast: 71 / 94 °F
Wind: 9 mph from South

Location: Abilene Regional Airport

Current Time: Sep 3, 2015 at 9:01:23 AM

Latest Report: Sep 3, 2015 at 7:52 AM


Visibility: 10 mi

Pressure: 29.92 "Hg (28.17 "Hg at 524m altitude)

Humidity: 74%

Dew point: 64 °F

Location of AbileneLocation

Historic Weather in Abilene — Graph

°F

Abilene temperature yesterday

Maximum temperature yesterday: 94 °F (at 2:52 PM)
Minimum temperature yesterday: 71 °F (at 6:52 AM)
Average temperature yesterday: 82 °F

Past Weeks' High & Low Weather Summary

 TemperatureHumidityPressure
High101 °F (Aug 25, 3:52 PM)93% (Aug 21, 3:52 AM)30.18 "Hg (Aug 21, 3:52 AM)
Low62 °F (Aug 20, 12:52 AM)16% (Aug 28, 4:52 PM)29.76 "Hg (Aug 22, 5:52 PM)
Average81 °F58%29.94 "Hg
* Reported Aug 19 7:52 AM — Sep 3 7:52 AM, Abilene, Weather by CustomWeather, © 2015

Note: Actual official high and low records may vary slightly from our data, if they occured in-between our weather recording intervals... More about our weather records

Advertising

Abilene weather history for previous 24 hours

 ConditionsComfort  
Time TempWeatherWind HumidityBarometerVisibility
7:52 AM
Thu, Sep 3
73 °FClear.9 mph74%29.92 "Hg10 mi
6:52 AM71 °FClear.7 mph78%29.90 "Hg10 mi
5:52 AM73 °FClear.8 mph74%29.88 "Hg10 mi
4:52 AM74 °FClear.12 mph71%29.88 "Hg10 mi
3:52 AM74 °FClear.10 mph67%29.88 "Hg10 mi
2:52 AM75 °FClear.9 mph62%29.88 "Hg10 mi
1:52 AM74 °FClear.9 mph62%29.90 "Hg10 mi
12:52 AM76 °FClear.10 mph58%29.90 "Hg10 mi
11:52 PM
Wed, Sep 2
79 °FClear.14 mph52%29.90 "Hg10 mi
10:52 PM79 °FClear.13 mph50%29.91 "Hg10 mi
9:52 PM82 °FClear.13 mph46%29.90 "Hg10 mi
8:52 PM84 °FSunny.9 mph40%29.88 "Hg10 mi
7:52 PM88 °FSunny.12 mph34%29.87 "Hg10 mi
6:52 PM92 °FSunny.15 mph30%29.87 "Hg10 mi
5:52 PM93 °FSunny.8 mph29%29.86 "Hg10 mi
4:52 PM93 °FPassing clouds.10 mph29%29.88 "Hg10 mi
3:52 PM94 °FSunny.8 mph31%29.90 "Hg10 mi
2:52 PM94 °FPartly sunny.13 mph30%29.92 "Hg10 mi
1:52 PM91 °FPassing clouds.N/A37%29.95 "Hg10 mi
12:52 PM90 °FPassing clouds.6 mph41%29.97 "Hg10 mi
11:52 AM87 °FSunny.9 mph48%29.99 "Hg10 mi
10:52 AM84 °FSunny.13 mph55%30.00 "Hg10 mi
9:52 AM79 °FWarm.13 mph65%30.00 "Hg10 mi
Weather by CustomWeather, © 2015

See weather overviewHow to use our weather pages